GW3840 Weather Reports


time (UTC)temp
F
wind
direction
speed
knots
gust
knots
rain 1hr
in
rain 24hr
in
rain mn
in
humidity
%
barometer
mb
20260901115412 59 232 0.0 0.0 0.00 0.00 0.00 99 1016.4
20260901114911 58 231 0.0 0.0 0.00 0.00 0.00 99 1016.4
20260901114406 57 212 0.0 0.0 0.00 0.00 0.00 99 1016.6
20260901113904 58 211 0.0 0.0 0.00 0.00 0.00 99 1016.4
20260901113403 57 206 0.0 0.0 0.00 0.00 0.00 99 1016.2
20260901112858 58 206 0.0 0.0 0.00 0.00 0.00 99 1016.2
20260901112353 58 239 0.0 0.0 0.00 0.00 0.00 99 1016.2
20260901111848 58 251 0.0 0.0 0.00 0.00 0.00 98 1016.1
20260901111347 59 187 0.0 0.0 0.00 0.00 0.00 98 1016.0
20260901110845 59 193 0.0 0.0 0.00 0.00 0.00 98 1016.0
20260901110341 58 191 0.0 0.0 0.00 0.00 0.00 98 1015.9
20260901105837 58 188 0.0 0.0 0.00 0.00 0.00 98 1015.8
20260901105332 59 186 0.0 0.0 0.00 0.00 0.00 97 1015.7
20260901104829 59 215 0.0 0.0 0.00 0.00 0.00 96 1015.7
20260901104324 59 215 0.0 0.0 0.00 0.00 0.00 96 1015.5
20260901103819 59 193 0.0 0.0 0.00 0.00 0.00 95 1015.6
20260901103319 59 219 0.0 0.0 0.00 0.00 0.00 94 1015.7
20260901102814 60 173 0.0 0.0 0.00 0.00 0.00 93 1015.9
20260901102308 60 173 0.0 0.0 0.00 0.00 0.00 92 1015.6
20260901101804 61 155 0.0 0.0 0.00 0.00 0.00 91 1015.8
20260901101303 62 184 0.0 0.0 0.00 0.00 0.00 88 1015.5
20260901100803 63 216 0.0 0.0 0.00 0.00 0.00 86 1015.4
20260901100258 64 212 0.0 0.9 0.00 0.00 0.00 85 1015.6
20260901095756 64 219 0.0 0.0 0.00 0.00 0.00 85 1015.4
20260901095254 64 246 0.9 1.7 0.00 0.00 0.00 84 1015.4
20260901094748 64 241 0.9 0.9 0.00 0.00 0.00 84 1015.5
20260901094243 65 258 0.9 0.9 0.00 0.00 0.00 84 1015.4
20260901093739 65 226 0.9 1.7 0.00 0.00 0.00 84 1015.4
20260901093237 65 289 1.7 1.7 0.00 0.00 0.00 85 1015.3
20260901092734 65 247 0.9 1.7 0.00 0.00 0.00 85 1015.4
20260901092229 64 251 0.9 0.9 0.00 0.00 0.00 88 1015.3
20260901091725 63 233 0.9 0.9 0.00 0.00 0.00 90 1015.4
20260901091220 62 234 0.0 0.9 0.00 0.00 0.00 93 1015.4
20260901090715 61 237 0.0 0.0 0.00 0.00 0.00 97 1015.3
20260901090210 61 218 0.0 0.0 0.00 0.00 0.00 98 1015.3
20260901085706 61 218 0.0 0.0 0.00 0.00 0.00 97 1015.1
20260901085201 61 218 0.0 0.9 0.00 0.00 0.00 98 1015.2
20260901084657 61 222 0.0 0.0 0.00 0.00 0.00 98 1015.4
20260901084153 61 210 0.0 0.0 0.00 0.00 0.00 98 1015.3
20260901083647 61 210 0.0 0.0 0.00 0.00 0.00 98 1015.2
20260901083146 61 208 0.0 0.0 0.00 0.00 0.00 97 1015.2
20260901082640 61 208 0.0 0.0 0.00 0.00 0.00 97 1015.2
20260901082136 61 208 0.0 0.0 0.00 0.00 0.00 96 1015.2
20260901081631 61 208 0.0 0.0 0.00 0.00 0.00 96 1015.2
20260901081125 61 208 0.0 0.0 0.00 0.00 0.00 95 1015.3
20260901080620 61 181 0.0 0.0 0.00 0.00 0.00 95 1015.4
20260901080118 62 180 0.0 0.9 0.00 0.00 0.00 93 1015.3
20260901075614 62 176 0.0 0.0 0.00 0.00 0.00 92 1015.2
20260901075114 63 174 0.0 0.0 0.00 0.00 0.00 92 1015.3
20260901074613 64 186 0.0 0.0 0.00 0.00 0.00 91 1015.3
20260901074108 64 156 0.0 0.0 0.00 0.00 0.00 91 1015.2
20260901073605 64 149 0.0 0.0 0.00 0.00 0.00 90 1015.4
20260901073059 65 165 0.0 0.0 0.00 0.00 0.00 89 1015.2
20260901072555 66 176 0.0 0.0 0.00 0.00 0.00 87 1015.3
20260901072049 67 166 0.0 1.7 0.00 0.00 0.00 85 1015.3
20260901071544 67 220 0.0 3.5 0.00 0.00 0.00 84 1015.3
20260901071042 67 218 0.9 1.7 0.00 0.00 0.00 84 1015.5
20260901070538 67 203 0.9 2.6 0.00 0.00 0.00 85 1015.3
20260901070033 66 241 0.9 0.9 0.00 0.00 0.00 86 1015.3
20260901065527 67 261 0.9 0.9 0.00 0.00 0.00 84 1015.3
20260901065022 67 234 0.0 1.7 0.00 0.00 0.00 85 1015.1
20260901064519 67 229 0.9 2.6 0.00 0.00 0.00 84 1015.5
20260901064015 66 168 0.9 1.7 0.00 0.00 0.00 85 1015.5
20260901063512 66 226 0.0 0.0 0.00 0.00 0.00 86 1015.4
20260901063007 66 199 0.0 0.0 0.00 0.00 0.00 85 1015.3
20260901062502 66 137 0.0 0.0 0.00 0.00 0.00 86 1015.6
20260901061953 66 226 0.0 0.0 0.00 0.00 0.00 86 1015.6
20260901061449 66 154 0.0 0.9 0.00 0.00 0.00 85 1015.5
20260901060948 66 183 0.0 0.0 0.00 0.00 0.00 84 1015.7
20260901060443 66 201 0.0 0.0 0.00 0.00 0.00 83 1015.4
20260901055938 66 158 0.0 0.0 0.00 0.00 0.00 82 1015.6
20260901055434 67 183 0.0 0.0 0.00 0.00 0.00 81 1015.5
20260901054925 67 151 0.0 0.0 0.00 0.00 0.00 80 1015.4
20260901054422 68 193 0.0 0.0 0.00 0.00 0.00 78 1015.4
20260901053918 68 176 0.0 0.0 0.00 0.00 0.00 77 1015.3
20260901053413 69 223 0.9 2.6 0.00 0.00 0.00 75 1015.2
20260901052908 69 207 0.9 1.7 0.00 0.00 0.00 76 1015.4
20260901052403 69 130 0.0 1.7 0.00 0.00 0.00 76 1015.4
20260901051902 69 184 0.0 0.9 0.00 0.00 0.00 75 1015.2
20260901051357 68 187 0.9 1.7 0.00 0.00 0.00 77 1015.3
20260901050852 66 139 0.0 1.7 0.00 0.00 0.00 81 1015.3
20260901050348 66 176 0.0 0.0 0.00 0.00 0.00 82 1015.3
20260901045843 67 176 0.0 0.0 0.00 0.00 0.00 80 1015.4
20260901045342 67 176 0.0 0.0 0.00 0.00 0.00 80 1015.3
20260901044838 67 157 0.0 0.0 0.00 0.00 0.00 80 1015.4
20260901044334 68 171 0.0 0.0 0.00 0.00 0.00 79 1015.2
20260901043830 68 182 0.0 0.0 0.00 0.00 0.00 77 1015.4
20260901043326 69 193 0.0 0.9 0.00 0.00 0.00 76 1015.3
20260901042824 69 181 0.0 0.9 0.00 0.00 0.00 76 1015.3
20260901042319 69 183 0.0 0.9 0.00 0.00 0.00 77 1015.3
20260901041815 69 175 0.0 0.0 0.00 0.00 0.00 77 1015.0
20260901041310 68 230 0.9 0.9 0.00 0.00 0.00 78 1015.1
20260901040804 67 163 0.0 0.9 0.00 0.00 0.00 82 1015.2
20260901040304 67 121 0.0 0.9 0.00 0.00 0.00 84 1015.3
20260901035803 66 170 0.0 0.0 0.00 0.00 0.00 85 1015.0
20260901035305 66 182 0.0 0.0 0.00 0.00 0.00 86 1015.0
20260901034800 65 185 0.0 0.0 0.00 0.00 0.00 88 1015.2
20260901034255 65 186 0.0 0.0 0.00 0.00 0.00 88 1015.2
20260901033749 65 180 0.0 0.0 0.00 0.00 0.00 88 1015.1
20260901033243 65 187 0.0 0.0 0.00 0.00 0.00 88 1015.0
20260901032742 65 190 0.0 0.0 0.00 0.00 0.00 88 1015.4
20260901032236 65 191 0.0 0.0 0.00 0.00 0.00 87 1015.2
20260901031726 66 191 0.0 0.0 0.00 0.00 0.00 87 1015.2
20260901031222 66 190 0.0 0.0 0.00 0.00 0.00 86 1015.3
20260901030721 66 197 0.0 0.0 0.00 0.00 0.00 85 1015.3
20260901030216 66 197 0.0 0.0 0.00 0.00 0.00 84 1015.1
20260901025711 66 197 0.0 0.0 0.00 0.00 0.00 83 1015.1
20260901025206 66 197 0.0 0.0 0.00 0.00 0.00 83 1015.0
20260901024705 66 199 0.0 0.0 0.00 0.00 0.00 83 1015.1
20260901024204 67 199 0.0 0.0 0.00 0.00 0.00 82 1014.7
20260901023702 67 207 0.0 0.0 0.00 0.00 0.00 80 1014.9
20260901023158 67 207 0.0 0.0 0.00 0.00 0.00 80 1014.9
20260901022653 67 207 0.0 0.0 0.00 0.00 0.00 80 1014.7
20260901022148 68 206 0.0 0.0 0.00 0.00 0.00 78 1014.7
20260901021643 68 207 0.0 0.0 0.00 0.00 0.00 79 1014.7
20260901021139 68 207 0.0 0.0 0.00 0.00 0.00 78 1014.6
20260901020635 68 195 0.0 0.0 0.00 0.00 0.00 79 1014.7
20260901020130 68 208 0.0 0.0 0.00 0.00 0.00 79 1014.6
20260901015625 68 192 0.0 0.0 0.00 0.00 0.00 79 1014.6
20260901015125 68 195 0.0 0.0 0.00 0.00 0.00 79 1014.5
20260901014619 69 178 0.0 0.0 0.00 0.00 0.00 78 1014.5
20260901014116 69 178 0.0 0.0 0.00 0.00 0.00 76 1014.5
20260901013612 69 179 0.0 0.0 0.00 0.00 0.00 75 1014.5
20260901013108 70 178 0.0 0.0 0.00 0.00 0.00 75 1014.3
20260901012607 71 179 0.0 0.0 0.00 0.00 0.00 73 1014.4
20260901012102 71 87 0.0 0.0 0.00 0.00 0.00 72 1014.2
20260901011559 73 87 0.0 0.0 0.00 0.00 0.00 69 1014.1
20260901011056 73 217 0.0 0.0 0.00 0.00 0.00 67 1014.2
20260901010552 74 104 0.0 0.0 0.00 0.00 0.00 66 1014.3
20260901010051 75 110 0.0 0.0 0.00 0.00 0.00 64 1014.4
20260901005546 76 233 0.9 1.7 0.00 0.00 0.00 62 1014.4
20260901005041 77 240 0.9 0.9 0.00 0.00 0.00 61 1014.4
20260901004540 78 215 0.9 2.6 0.00 0.00 0.00 61 1014.3
20260901004035 78 234 0.9 2.6 0.00 0.00 0.00 60 1014.3
20260901003531 79 229 1.7 2.6 0.00 0.00 0.00 58 1014.1
20260901003029 79 230 0.9 1.7 0.00 0.00 0.00 56 1014.3
20260901002528 80 183 0.9 2.6 0.00 0.00 0.00 55 1014.3
20260901002024 80 247 3.5 3.5 0.00 0.00 0.00 53 1014.3
20260901001519 81 233 0.9 5.2 0.00 0.00 0.00 51 1014.2
20260901001014 81 211 1.7 5.2 0.00 0.00 0.00 52 1014.1
20260901000513 81 193 0.0 1.7 0.00 0.00 0.00 52 1014.4
20260901000009 82 227 2.6 2.6 0.00 0.00 0.00 52 1014.1
20260831235503 82 252 2.6 3.5 0.00 0.00 0.00 49 1014.3
20260831234958 82 277 2.6 5.2 0.00 0.00 0.00 51 1014.3
20260831234453 82 162 1.7 2.6 0.00 0.00 0.00 47 1013.9
20260831233949 82 272 2.6 2.6 0.00 0.00 0.00 46 1014.2
20260831233444 83 251 2.6 3.5 0.00 0.00 0.00 45 1014.3
20260831232939 83 184 1.7 3.5 0.00 0.00 0.00 46 1014.2
20260831232435 83 235 1.7 3.5 0.00 0.00 0.00 47 1014.2
20260831231931 84 225 1.7 6.1 0.00 0.00 0.00 47 1014.1
20260831231427 84 173 1.7 3.5 0.00 0.00 0.00 45 1014.2
20260831230923 83 246 1.7 3.5 0.00 0.00 0.00 43 1014.2
20260831230422 84 232 3.5 5.2 0.00 0.00 0.00 43 1014.2
20260831225917 84 228 3.5 5.2 0.00 0.00 0.00 43 1014.2
20260831225414 84 215 0.9 5.2 0.00 0.00 0.00 43 1014.3
20260831224908 84 269 2.6 5.2 0.00 0.00 0.00 43 1014.3
20260831224408 85 238 4.3 6.1 0.00 0.00 0.00 42 1014.2
20260831223903 85 247 3.5 5.2 0.00 0.00 0.00 41 1014.2
20260831223358 86 248 2.6 5.2 0.00 0.00 0.00 40 1014.2
20260831222855 84 229 0.9 5.2 0.00 0.00 0.00 41 1014.1
20260831222350 85 266 2.6 2.6 0.00 0.00 0.00 40 1014.1
20260831221845 85 206 2.6 5.2 0.00 0.00 0.00 41 1014.1
20260831221341 85 231 1.7 3.5 0.00 0.00 0.00 39 1014.0
20260831220836 86 236 1.7 3.5 0.00 0.00 0.00 39 1014.1
20260831220331 84 232 2.6 5.2 0.00 0.00 0.00 41 1014.1
20260831215826 85 247 3.5 7.0 0.00 0.00 0.00 39 1014.4
20260831215322 85 265 2.6 3.5 0.00 0.00 0.00 40 1014.3
20260831214818 85 255 3.5 5.2 0.00 0.00 0.00 41 1014.2
20260831214316 85 253 2.6 3.5 0.00 0.00 0.00 41 1014.2
20260831213811 85 260 2.6 7.0 0.00 0.00 0.00 41 1014.4
20260831213307 84 269 3.5 5.2 0.00 0.00 0.00 41 1014.4
20260831212802 85 213 1.7 3.5 0.00 0.00 0.00 38 1014.2
20260831212259 86 213 5.2 7.0 0.00 0.00 0.00 38 1014.2
20260831211757 85 243 2.6 6.1 0.00 0.00 0.00 42 1014.3
20260831211252 85 227 4.3 6.1 0.00 0.00 0.00 42 1014.2
20260831210747 85 135 3.5 5.2 0.00 0.00 0.00 42 1014.3
20260831210243 86 226 3.5 3.5 0.00 0.00 0.00 42 1014.3
20260831205742 86 308 1.7 2.6 0.00 0.00 0.00 42 1014.3
20260831205238 86 262 2.6 7.0 0.00 0.00 0.00 40 1014.1
20260831204738 85 261 5.2 7.0 0.00 0.00 0.00 40 1014.2
20260831204237 85 216 2.6 5.2 0.00 0.00 0.00 39 1014.3
20260831203736 86 251 4.3 6.1 0.00 0.00 0.00 40 1014.2
20260831203231 85 214 3.5 6.1 0.00 0.00 0.00 41 1014.3
20260831202729 85 296 5.2 7.0 0.00 0.00 0.00 38 1014.4
20260831202225 85 350 2.6 5.2 0.00 0.00 0.00 38 1014.3
20260831201724 85 260 4.3 11.3 0.00 0.00 0.00 36 1014.3
20260831201219 85 275 2.6 5.2 0.00 0.00 0.00 39 1014.2
20260831200714 86 248 2.6 6.1 0.00 0.00 0.00 40 1014.2
20260831200209 86 317 2.6 5.2 0.00 0.00 0.00 40 1014.1
20260831195704 85 273 3.5 7.0 0.00 0.00 0.00 38 1014.2
20260831195159 85 276 3.5 5.2 0.00 0.00 0.00 39 1014.3
20260831194654 85 290 4.3 5.2 0.00 0.00 0.00 40 1014.3
20260831194149 84 317 2.6 8.7 0.00 0.00 0.00 40 1014.2
20260831193643 86 218 2.6 3.5 0.00 0.00 0.00 40 1014.4
20260831193139 84 208 3.5 6.1 0.00 0.00 0.00 43 1014.2
20260831192633 83 322 3.5 5.2 0.00 0.00 0.00 42 1014.1
20260831192129 84 114 0.9 3.5 0.00 0.00 0.00 42 1014.0
20260831191625 85 23 1.7 2.6 0.00 0.00 0.00 40 1014.0
20260831191120 84 210 2.6 3.5 0.00 0.00 0.00 39 1014.0
20260831190615 83 299 2.6 5.2 0.00 0.00 0.00 42 1013.9
20260831190114 84 284 2.6 6.1 0.00 0.00 0.00 45 1013.9
20260831185610 84 245 4.3 7.0 0.00 0.00 0.00 43 1014.1
20260831185106 82 311 2.6 6.1 0.00 0.00 0.00 47 1014.1
20260831184600 82 238 1.7 5.2 0.00 0.00 0.00 45 1014.1
20260831184055 82 273 1.7 6.1 0.00 0.00 0.00 45 1014.0
20260831183554 82 310 3.5 5.2 0.00 0.00 0.00 45 1014.1
20260831183048 82 7 3.5 7.0 0.00 0.00 0.00 42 1014.2
20260831182542 81 309 2.6 7.0 0.00 0.00 0.00 48 1014.3
20260831182038 81 318 3.5 5.2 0.00 0.00 0.00 45 1014.1
20260831181533 82 273 5.2 7.8 0.00 0.00 0.00 44 1014.2
20260831181032 81 221 1.7 6.1 0.00 0.00 0.00 45 1014.2
20260831180527 82 342 2.6 7.0 0.00 0.00 0.00 47 1014.3
20260831180022 80 12 2.6 6.1 0.00 0.00 0.00 48 1014.2
20260831175517 81 335 3.5 6.1 0.00 0.00 0.00 48 1014.2
20260831175014 81 330 2.6 7.0 0.00 0.00 0.00 49 1014.3
20260831174508 80 306 6.1 7.0 0.00 0.00 0.00 48 1014.4
20260831174003 80 14 1.7 5.2 0.00 0.00 0.00 52 1014.4
20260831173501 79 331 1.7 7.0 0.00 0.00 0.00 53 1014.4
20260831172957 78 315 4.3 7.0 0.00 0.00 0.00 54 1014.2
20260831172453 80 279 4.3 7.0 0.00 0.00 0.00 52 1014.3
20260831171948 79 335 1.7 5.2 0.00 0.00 0.00 54 1014.2
20260831171443 80 324 2.6 7.0 0.00 0.00 0.00 52 1014.5
20260831170940 79 292 1.7 5.2 0.00 0.00 0.00 56 1014.5
20260831170436 78 269 4.3 6.1 0.00 0.00 0.00 53 1014.2
20260831165932 79 314 3.5 5.2 0.00 0.00 0.00 55 1014.3
20260831165428 78 346 2.6 7.0 0.00 0.00 0.00 56 1014.2
20260831164924 78 296 3.5 5.2 0.00 0.00 0.00 57 1014.4
20260831164420 77 16 3.5 5.2 0.00 0.00 0.00 62 1014.3
20260831163915 77 349 5.2 7.8 0.00 0.00 0.00 60 1014.2
20260831163411 77 290 2.6 7.0 0.00 0.00 0.00 62 1014.2
20260831162909 78 334 5.2 7.0 0.00 0.00 0.00 61 1014.2
20260831162405 78 283 4.3 6.1 0.00 0.00 0.00 64 1014.3
20260831161903 77 354 3.5 5.2 0.00 0.00 0.00 67 1014.2
20260831161400 77 289 2.6 6.1 0.00 0.00 0.00 65 1014.5
20260831160855 76 352 2.6 6.1 0.00 0.00 0.00 68 1014.5
20260831160349 77 48 2.6 5.2 0.00 0.00 0.00 66 1014.5
20260831155844 75 303 3.5 5.2 0.00 0.00 0.00 70 1014.4
20260831155338 75 293 4.3 8.7 0.00 0.00 0.00 70 1014.5
20260831154834 74 263 3.5 5.2 0.00 0.00 0.00 74 1014.5
20260831154331 74 240 0.9 2.6 0.00 0.00 0.00 75 1014.5
20260831153829 73 265 3.5 3.5 0.00 0.00 0.00 77 1014.4
20260831153325 72 309 2.6 5.2 0.00 0.00 0.00 80 1014.3
20260831152821 72 280 4.3 7.0 0.00 0.00 0.00 80 1014.1
20260831152317 72 287 1.7 6.1 0.00 0.00 0.00 82 1014.2
20260831151812 72 317 3.5 3.5 0.00 0.00 0.00 81 1014.1
20260831151311 71 330 1.7 2.6 0.00 0.00 0.00 84 1014.2
20260831150806 71 338 2.6 5.2 0.00 0.00 0.00 84 1013.9
20260831150301 71 268 2.6 5.2 0.00 0.00 0.00 85 1013.7
20260831145800 71 342 2.6 3.5 0.00 0.00 0.00 84 1013.7
20260831145257 71 305 5.2 7.0 0.00 0.00 0.00 84 1013.9
20260831144752 70 334 1.7 7.0 0.00 0.00 0.00 86 1013.7
20260831144249 71 329 2.6 3.5 0.00 0.00 0.00 86 1013.7
20260831143748 70 228 1.7 5.2 0.00 0.00 0.00 89 1013.7
20260831143243 69 263 4.3 6.1 0.00 0.00 0.00 89 1013.5
20260831142739 68 317 2.6 3.5 0.00 0.00 0.00 90 1013.6
20260831142234 68 351 4.3 7.0 0.00 0.00 0.00 91 1013.9
20260831141733 69 258 3.5 6.1 0.00 0.00 0.00 90 1013.7
20260831141228 69 294 5.2 7.8 0.00 0.00 0.00 90 1013.5
20260831140728 69 55 1.7 5.2 0.00 0.00 0.00 90 1013.4
20260831140222 69 340 3.5 5.2 0.00 0.00 0.00 90 1013.4
20260831135720 68 275 1.7 5.2 0.00 0.00 0.00 92 1013.2
20260831135216 68 44 1.7 6.1 0.00 0.00 0.00 93 1013.1
20260831134712 68 50 1.7 6.1 0.00 0.00 0.00 93 1013.2
20260831134208 68 268 2.6 5.2 0.00 0.00 0.00 93 1013.2
20260831133706 67 278 5.2 7.8 0.00 0.00 0.00 94 1013.1
20260831133201 67 287 5.2 8.7 0.00 0.00 0.00 95 1013.1
20260831132657 67 338 3.5 8.7 0.00 0.00 0.00 96 1013.0
20260831132156 67 9 4.3 7.0 0.00 0.00 0.00 95 1013.1
20260831131651 67 287 2.6 7.0 0.00 0.00 0.00 95 1013.0
20260831131148 68 14 4.3 6.1 0.00 0.00 0.00 95 1013.0
20260831130642 67 332 2.6 7.8 0.00 0.00 0.00 96 1012.6
20260831130138 67 348 1.7 7.0 0.00 0.00 0.00 97 1012.9
20260831125636 67 297 1.7 3.5 0.00 0.00 0.00 97 1012.7
20260831125132 67 298 3.5 11.3 0.00 0.00 0.00 96 1012.5
20260831124628 68 281 5.2 7.0 0.00 0.00 0.00 96 1012.2
20260831124124 68 286 2.6 3.5 0.00 0.00 0.00 97 1012.1
20260831123623 68 315 3.5 3.5 0.00 0.00 0.00 99 1012.0
20260831123122 68 290 3.5 3.5 0.00 0.00 0.00 99 1011.5
20260831122622 68 282 1.7 5.2 0.00 0.00 0.00 99 1011.6
20260831122118 68 263 1.7 2.6 0.00 0.00 0.00 99 1011.7
20260831121617 68 297 2.6 5.2 0.00 0.00 0.00 99 1011.7
20260831121114 68 307 2.6 6.1 0.00 0.00 0.00 99 1011.6
20260831120609 68 242 2.6 3.5 0.00 0.00 0.00 99 1011.6
20260831120104 68 281 3.5 7.0 0.00 0.00 0.00 99 1011.6
20260831115600 68 266 1.7 5.2 0.00 0.00 0.00 99 1011.3